[[{"header":{"parameterUnit":"m.s-1","parameterCategory":1,"la1":30.2991,"la2":30.254,"lo1":-89.0895,"lo2":-89.0444,"dy":0.0017,"dx":0.0017,"nx":28,"ny":28,"refTime":"2025-03-15T03:00:00:Z","depth":0,"parameterNumber":2,"parameterNumberName":"U-component_of_WINDS"},"data":[0,0,0,0,0,0,0,0,0,0,0,0,0,0,0,0,0,0,0,0,0,0,0,0,0,0,0,0,0,0,0,0,0,0,0,0,0,0,0,0,0,0,0,0,0,0,0,0,0,0,0,0,0,0,0,0,0,0,3.864,3.8641,0,3.8745,3.8746,3.8747,3.8691,3.8688,3.8685,3.8682,3.8794,3.88,3.8805,0,0,0,0,0,0,0,0,0,0,0,0,0,3.8393,3.8397,3.8639,3.8641,3.8642,3.8745,3.8746,3.8748,3.8691,3.8688,3.8684,3.8681,3.8792,3.8799,3.8806,0,0,0,0,0,0,0,0,0,0,0,0,0,3.8499,3.8399,3.8639,3.8626,3.8626,3.8744,3.8746,3.8748,3.8692,3.8688,3.8683,3.8679,3.879,3.8798,3.8807,3.8945,0,0,3.8833,3.8836,0,0,0,0,0,0,0,0,3.8493,3.8508,3.8627,3.8627,3.8627,3.87,3.87,3.8814,3.8693,3.8667,3.8682,3.8677,3.8767,3.8777,3.8806,3.895,3.8955,3.8833,3.8839,3.8842,3.8845,0,0,0,0,0,0,0,3.8486,3.8504,3.8681,3.8629,3.8629,3.8616,3.8627,3.8721,3.874,3.8669,3.8665,3.8678,3.8766,3.8798,3.8808,3.8957,3.8833,3.8841,3.8846,3.8849,3.9218,3.9223,0,0,0,0,0,0,3.8479,3.8498,3.8678,3.8684,3.8548,3.8624,3.8636,3.8681,3.8739,3.8743,3.8682,3.8675,3.8786,3.8799,3.8812,3.8977,3.8842,3.885,3.8855,3.9214,3.9219,3.9224,0,0,0,0,0,0,3.8474,3.8495,3.8674,3.859,3.8612,3.8633,3.8685,3.8686,3.8717,3.8748,3.8752,3.8711,3.8783,3.88,3.8912,3.898,3.8854,3.8862,3.9208,3.9215,3.9222,3.9307,0,0,0,0,0,0,3.8467,3.8494,3.8546,3.8592,3.8616,3.8771,3.8689,3.8691,3.8732,3.8724,3.8776,3.8781,3.8781,3.8899,3.892,3.8989,3.8868,3.9202,3.9211,3.922,3.9299,3.9317,3.9332,0,0,0,0,0,3.8458,3.8567,3.8549,3.8571,3.8682,3.8775,3.8789,3.8786,3.8737,3.879,3.881,3.8779,3.8969,3.8911,3.8934,3.9007,3.9198,3.9209,3.9219,3.9291,3.9313,3.9332,0,0,0,0,0,0,3.853,3.8573,3.8553,3.868,3.8724,3.8765,3.8832,3.8809,3.8869,3.886,3.8854,3.8866,3.8982,3.9006,3.8941,3.9143,3.9076,3.9092,3.9123,3.9144,3.916,3.9152,3.8875,0,0,0,0,0,3.8561,3.8632,3.8665,3.8774,3.8797,3.8811,3.8851,3.8844,3.8891,3.891,3.8937,3.8984,3.9054,3.9101,3.9167,3.9302,3.9312,3.9363,3.938,3.9393,3.9407,3.9479,3.9502,3.9259,3.9259,3.9259,0,0,3.8625,3.8657,3.8702,3.8789,3.8823,3.8897,3.8827,3.8909,3.8964,3.8922,3.9029,3.9051,3.9103,3.9227,3.9283,3.925,3.9476,3.9407,3.9417,3.9424,3.9492,3.9515,3.9536,3.9267,3.9265,3.9264,0,0,3.8779,3.881,3.8903,3.8938,3.8989,3.8997,3.902,3.9065,3.9077,3.9183,3.9153,3.922,3.9341,3.9379,3.9414,3.9582,3.9556,3.9604,3.969,3.9761,3.978,3.9797,3.9856,3.9877,3.9617,3.9617,3.9618,0,3.8852,3.8962,3.8955,3.9038,3.9077,3.9042,3.9136,3.9171,3.9242,3.927,3.9232,3.9382,3.9415,3.9546,3.9587,3.9617,3.9642,3.9597,3.9778,3.9795,3.981,3.9866,3.9889,3.9623,3.9622,3.9622,3.9621,0,3.9049,3.9126,3.9195,3.9262,3.9309,3.9398,3.9405,3.9454,3.9443,3.9456,3.9564,3.9602,3.9675,3.9706,3.9697,3.9836,3.9814,3.9778,3.971,3.9839,3.9891,3.9913,3.9631,3.9629,3.9627,3.9626,0,0,3.9251,3.9313,3.9338,3.9368,3.9421,3.9481,3.9569,3.9638,3.968,3.973,3.9803,3.9906,3.9871,3.9912,3.9907,3.9969,4.0098,3.9924,3.9925,3.9954,4.0253,4.0279,4.0304,4.0081,4.0085,4.0089,4.0248,0,3.9408,3.9559,3.9555,3.9696,3.9767,3.9734,3.981,3.9851,3.9865,3.9928,3.9944,4.0016,3.9966,3.999,4.005,4.007,4.0158,4.0058,4.0149,4.0153,4.0136,4.0332,4.0361,4.0509,4.0269,4.0272,4.0275,0,3.9611,3.9666,3.9814,3.9856,3.9885,3.9954,4.0017,4.0077,4.0123,4.0129,4.0173,4.0158,4.0248,4.0178,4.0301,4.0233,4.0271,4.0286,4.0292,4.0299,4.0221,4.0344,4.0557,4.0579,4.0307,4.0305,4.0302,0,3.9743,3.9854,3.9956,3.9983,4.0035,4.0084,4.0108,4.015,4.0192,4.0247,4.0274,4.034,4.0377,4.0428,4.0432,4.0381,4.0556,4.0486,4.0563,4.0563,4.0601,4.0598,4.0821,4.0627,4.0626,4.0626,4.0625,0,3.9918,4.0009,4.0016,4.0079,4.018,4.0175,4.0276,4.0296,4.0333,4.04,4.0376,4.0439,4.044,4.0505,4.0509,4.061,4.0627,4.0634,4.0634,4.0636,4.0635,4.0659,4.0649,4.0632,4.063,4.0629,4.0628,0,4.0081,4.009,4.0199,4.0238,4.0251,4.0324,4.0358,4.0418,4.043,4.0514,4.0534,4.0553,4.0628,4.0636,4.0724,4.0727,4.0848,4.0837,4.0832,4.0829,4.0905,4.0897,4.1151,4.1184,4.0969,4.0971,4.0973,0,4.0192,4.0261,4.0308,4.035,4.0376,4.0445,4.0487,4.0485,4.053,4.0587,4.0641,4.0713,4.0771,4.0892,4.0914,4.0981,4.0971,4.1056,4.0981,4.0981,4.0971,4.0967,4.0973,4.107,4.1072,4.1074,4.1076,0,4.0387,4.0387,4.0448,4.0511,4.0561,4.0611,4.0657,4.0693,4.0697,4.0749,4.0824,4.0869,4.0958,4.103,4.1096,4.1121,4.11,4.1099,4.112,4.1122,4.1115,4.1119,4.087,4.1093,4.1091,4.109,4.1089,4.1088,4.0527,4.0586,4.0628,4.0696,4.0731,4.0774,4.0832,4.0851,4.0913,4.0984,4.098,4.1063,4.1107,4.1193,4.1224,4.1289,4.1261,4.1292,4.13,4.1307,4.1314,4.1106,4.1301,4.1301,4.1301,4.13,4.13,0,4.0719,4.0744,4.0807,4.0872,4.0926,4.0899,4.0949,4.0996,4.1069,4.1112,4.1169,4.1255,4.1325,4.1352,4.142,4.1468,4.1459,4.1486,4.1482,4.1488,4.1336,4.131,4.1491,4.1491,4.1491,4.1491,4.1491,4.1491,4.0825,4.0924,4.093,4.1045,4.107,4.115,4.1181,4.1221,4.1255,4.1352,4.1409,4.1426,4.1463,4.1533,4.1596,4.1602,4.1628,4.1659,4.1661,4.1518,4.1499,4.148,4.1456,4.1664,4.1665,4.1807,4.1808,4.1809]},{"header":{"parameterUnit":"m.s-1","parameterCategory":1,"la1":30.2991,"la2":30.254,"lo1":-89.0895,"lo2":-89.0444,"dy":0.0017,"dx":0.0017,"nx":28,"ny":28,"refTime":"2025-03-15T03:00:00:Z","depth":0,"parameterNumber":3,"parameterNumberName":"V-component_of_WINDS"},"data":[0,0,0,0,0,0,0,0,0,0,0,0,0,0,0,0,0,0,0,0,0,0,0,0,0,0,0,0,0,0,0,0,0,0,0,0,0,0,0,0,0,0,0,0,0,0,0,0,0,0,0,0,0,0,0,0,0,0,1.8499,1.85,0,1.8651,1.8653,1.8655,1.8674,1.8673,1.8671,1.867,1.8829,1.8834,1.884,0,0,0,0,0,0,0,0,0,0,0,0,0,1.8227,1.8232,1.8499,1.8501,1.8502,1.8651,1.8653,1.8655,1.8675,1.8673,1.8671,1.8669,1.8827,1.8834,1.884,0,0,0,0,0,0,0,0,0,0,0,0,0,1.8359,1.8233,1.8498,1.853,1.8534,1.865,1.8653,1.8656,1.8675,1.8673,1.867,1.8668,1.8825,1.8833,1.8841,1.8937,0,0,1.8867,1.8871,0,0,0,0,0,0,0,0,1.8351,1.8369,1.8523,1.8528,1.8533,1.8641,1.8615,1.875,1.8675,1.8622,1.867,1.8667,1.8768,1.8781,1.8815,1.8945,1.8951,1.8868,1.8873,1.8876,1.8879,0,0,0,0,0,0,0,1.8342,1.8362,1.8559,1.8526,1.8532,1.8537,1.8554,1.8641,1.8706,1.8626,1.8628,1.8646,1.8771,1.8807,1.8819,1.8954,1.8867,1.8875,1.888,1.8883,1.917,1.9173,0,0,0,0,0,0,1.8327,1.8354,1.8554,1.8564,1.8435,1.8544,1.8562,1.8609,1.8705,1.8717,1.8647,1.8646,1.8793,1.8809,1.8824,1.8944,1.8876,1.8884,1.8889,1.9168,1.9171,1.9174,0,0,0,0,0,0,1.8321,1.8344,1.8548,1.846,1.8486,1.8551,1.8603,1.8613,1.8649,1.8721,1.8732,1.8672,1.8792,1.8813,1.8909,1.8949,1.8888,1.8896,1.9165,1.9169,1.9172,1.9182,0,0,0,0,0,0,1.8313,1.8342,1.8379,1.846,1.8491,1.8629,1.8606,1.8618,1.8663,1.8663,1.8747,1.8759,1.8792,1.8896,1.8917,1.896,1.8902,1.9161,1.9166,1.9171,1.9179,1.9186,1.9192,0,0,0,0,0,1.8303,1.8376,1.838,1.8404,1.8538,1.8632,1.8649,1.8685,1.8666,1.8704,1.875,1.8756,1.8941,1.8906,1.893,1.8975,1.9159,1.9165,1.9171,1.9176,1.9185,1.9192,0,0,0,0,0,0,1.8299,1.8387,1.8393,1.8495,1.8555,1.8635,1.8684,1.8693,1.8762,1.8759,1.8801,1.882,1.8914,1.8954,1.8914,1.9073,1.9048,1.9059,1.9044,1.9053,1.906,1.9049,1.8909,0,0,0,0,0,1.8309,1.8377,1.8451,1.8534,1.8564,1.8618,1.8661,1.8683,1.8748,1.8774,1.8827,1.8891,1.8963,1.901,1.9081,1.9184,1.9203,1.9227,1.9234,1.9239,1.9249,1.9307,1.9319,1.9193,1.9193,1.9193,0,0,1.8332,1.8389,1.843,1.8534,1.8584,1.8655,1.864,1.8715,1.8768,1.8786,1.888,1.8921,1.8995,1.9095,1.9142,1.9131,1.9287,1.9247,1.925,1.9257,1.9314,1.9326,1.9337,1.9197,1.9196,1.9195,0,0,1.8411,1.846,1.8534,1.8584,1.8659,1.8695,1.8712,1.8791,1.8818,1.8913,1.8928,1.8992,1.9115,1.9168,1.921,1.9307,1.9316,1.9329,1.9365,1.9422,1.9432,1.9441,1.9476,1.9489,1.9338,1.9338,1.9338,0,1.8431,1.8537,1.8571,1.8646,1.8692,1.871,1.8786,1.8833,1.8927,1.8959,1.8945,1.9101,1.9152,1.9265,1.9288,1.9322,1.9344,1.932,1.9427,1.9437,1.9446,1.948,1.9493,1.9339,1.9339,1.9339,1.9339,0,1.8557,1.8631,1.8682,1.8772,1.8823,1.8898,1.8945,1.8993,1.901,1.9047,1.9144,1.9205,1.9289,1.9317,1.9335,1.9433,1.9424,1.9418,1.9394,1.9458,1.9491,1.9505,1.9341,1.934,1.934,1.934,0,0,1.8639,1.8746,1.8765,1.8806,1.8889,1.8947,1.9023,1.9104,1.9144,1.9209,1.9274,1.9378,1.9373,1.9421,1.9445,1.9494,1.9568,1.9483,1.9485,1.9497,1.9681,1.9686,1.97,1.9574,1.9576,1.9578,1.9675,0,1.8728,1.8863,1.8896,1.9012,1.908,1.9098,1.9164,1.9223,1.9259,1.9323,1.9364,1.9437,1.9424,1.9454,1.9503,1.9549,1.9606,1.9542,1.9636,1.9639,1.9619,1.9718,1.9723,1.9811,1.9688,1.969,1.9692,0,1.885,1.8916,1.9038,1.9113,1.9143,1.9202,1.9279,1.9339,1.9406,1.9429,1.9483,1.9502,1.9582,1.9552,1.9664,1.962,1.966,1.9689,1.9693,1.9704,1.967,1.9733,1.984,1.9854,1.9712,1.9711,1.9709,0,1.8899,1.9018,1.9107,1.9141,1.923,1.9271,1.931,1.9375,1.9421,1.9489,1.9519,1.9595,1.9637,1.9695,1.9734,1.9709,1.9843,1.9817,1.9866,1.9865,1.9895,1.9893,2.0012,1.9918,1.9918,1.9918,1.9918,0,1.8995,1.907,1.913,1.9184,1.9268,1.9306,1.9388,1.9428,1.9485,1.9549,1.9568,1.9627,1.9674,1.974,1.9771,1.986,1.9878,1.99,1.9908,1.9899,1.9897,1.9928,1.9923,1.9921,1.9921,1.992,1.9919,0,1.9064,1.9107,1.9205,1.9281,1.9302,1.9361,1.9426,1.948,1.9516,1.9596,1.9617,1.9675,1.9753,1.9798,1.9897,1.9917,2.0016,2.002,1.9993,1.9997,2.0044,2.004,2.0188,2.021,2.0101,2.0102,2.0102,0,1.9124,1.9182,1.9263,1.9306,1.9346,1.9416,1.9463,1.9502,1.955,1.9631,1.9675,1.9755,1.982,1.9945,1.9996,2.0072,2.0079,2.0126,2.0091,2.008,2.0081,2.0078,2.0084,2.0132,2.0133,2.0134,2.0135,0,1.9226,1.9244,1.9311,1.9385,1.944,1.9501,1.9561,1.9596,1.9645,1.9698,1.9778,1.9829,1.9929,2.0008,2.0088,2.0129,2.0141,2.0145,2.0161,2.0153,2.0136,2.0147,2.0012,2.0142,2.0141,2.0141,2.014,2.014,1.9293,1.9345,1.9411,1.9484,1.9533,1.9589,1.9644,1.9686,1.9754,1.9838,1.9857,1.9941,2.0007,2.0115,2.0158,2.0225,2.0217,2.0239,2.0245,2.0251,2.0253,2.0124,2.024,2.024,2.024,2.024,2.0239,0,1.9397,1.9439,1.9507,1.959,1.9648,1.9652,1.9719,1.9767,1.9841,1.9901,1.9965,2.0057,2.0133,2.019,2.0269,2.0311,2.0319,2.0331,2.0329,2.0339,2.0255,2.0235,2.0324,2.0324,2.0324,2.0324,2.0324,2.0324,1.9458,1.9546,1.9572,1.9685,1.9728,1.981,1.9848,1.99,1.9948,2.0049,2.0112,2.0148,2.0208,2.029,2.0361,2.0375,2.0404,2.0416,2.0431,2.0353,2.0344,2.0336,2.0316,2.0421,2.0421,2.0509,2.051,2.0511]}]]